Tabellarische Ansicht des 7.8.2007


Die einzelnen Werte des Tages

Uhrzeit Temperatur Luftdruck Luftfeuchte Wind Hi-Wind Taupunkt THW Index Wind Chill Heat Index Solar- strahlung Regen

00:00

19.3 C

1008.5 hpa

71 %

0.0 km/h aus 117

3.2 km/h aus NW

13.9 C

19.5 C

19.3 C

19.5 C

0 W/m

0.00 mm

00:05

18.8 C

1008.5 hpa

73 %

1.6 km/h aus 115

4.8 km/h aus NW

13.9 C

19.1 C

18.8 C

19.1 C

0 W/m

0.00 mm

00:10

18.8 C

1008.5 hpa

72 %

1.6 km/h aus 117

4.8 km/h aus NW

13.6 C

18.9 C

18.8 C

18.9 C

0 W/m

0.00 mm

00:15

18.8 C

1008.7 hpa

73 %

1.6 km/h aus 116

3.2 km/h aus W

13.9 C

19.1 C

18.8 C

19.1 C

0 W/m

0.00 mm

00:20

18.9 C

1008.7 hpa

73 %

3.2 km/h aus 117

4.8 km/h aus W

13.9 C

19.1 C

18.9 C

19.1 C

0 W/m

0.00 mm

00:25

18.8 C

1008.7 hpa

75 %

3.2 km/h aus 116

4.8 km/h aus W

14.3 C

19.1 C

18.8 C

19.1 C

0 W/m

0.00 mm

00:30

18.7 C

1008.8 hpa

77 %

1.6 km/h aus 117

4.8 km/h aus W

14.6 C

19.1 C

18.7 C

19.1 C

0 W/m

0.00 mm

00:35

19.3 C

1008.8 hpa

82 %

8.0 km/h aus 117

16.1 km/h aus W

16.1 C

19.9 C

19.3 C

19.9 C

0 W/m

0.00 mm

00:40

20.1 C

1008.8 hpa

78 %

11.3 km/h aus 116

24.1 km/h aus NW

16.1 C

20.7 C

20.1 C

20.7 C

0 W/m

0.00 mm

00:45

20.4 C

1008.9 hpa

76 %

9.7 km/h aus 116

16.1 km/h aus W

16.1 C

21.1 C

20.4 C

21.1 C

0 W/m

0.00 mm

00:50

20.6 C

1008.9 hpa

74 %

8.0 km/h aus 117

16.1 km/h aus W

15.8 C

21.1 C

20.6 C

21.1 C

0 W/m

0.00 mm

00:55

20.6 C

1008.9 hpa

72 %

9.7 km/h aus 115

20.9 km/h aus WNW

15.4 C

20.9 C

20.6 C

20.9 C

0 W/m

0.00 mm

01:00

20.5 C

1008.9 hpa

72 %

6.4 km/h aus 117

16.1 km/h aus W

15.3 C

20.8 C

20.5 C

20.8 C

0 W/m

0.00 mm

01:05

20.5 C

1008.9 hpa

71 %

11.3 km/h aus 116

20.9 km/h aus WNW

15.1 C

20.8 C

20.5 C

20.8 C

0 W/m

0.00 mm

01:10

20.4 C

1008.9 hpa

70 %

9.7 km/h aus 116

17.7 km/h aus NW

14.8 C

20.7 C

20.4 C

20.7 C

0 W/m

0.00 mm

01:15

20.4 C

1008.9 hpa

70 %

9.7 km/h aus 117

20.9 km/h aus WNW

14.7 C

20.7 C

20.4 C

20.7 C

0 W/m

0.00 mm

01:20

20.2 C

1008.9 hpa

70 %

6.4 km/h aus 117

14.5 km/h aus NW

14.6 C

20.5 C

20.2 C

20.5 C

0 W/m

0.00 mm

01:25

20.1 C

1008.9 hpa

70 %

6.4 km/h aus 117

16.1 km/h aus NW

14.5 C

20.4 C

20.1 C

20.4 C

0 W/m

0.00 mm

01:30

20.0 C

1009.0 hpa

70 %

8.0 km/h aus 117

16.1 km/h aus W

14.4 C

20.3 C

20.0 C

20.3 C

0 W/m

0.00 mm

01:35

19.9 C

1009.0 hpa

70 %

8.0 km/h aus 116

16.1 km/h aus NNW

14.3 C

20.3 C

19.9 C

20.3 C

0 W/m

0.00 mm

01:40

19.9 C

1009.0 hpa

70 %

8.0 km/h aus 117

17.7 km/h aus NW

14.3 C

20.3 C

19.9 C

20.3 C

0 W/m

0.00 mm

01:45

19.9 C

1009.1 hpa

70 %

6.4 km/h aus 117

14.5 km/h aus W

14.3 C

20.3 C

19.9 C

20.3 C

0 W/m

0.00 mm

01:50

19.8 C

1009.1 hpa

71 %

6.4 km/h aus 116

14.5 km/h aus W

14.4 C

20.2 C

19.8 C

20.2 C

0 W/m

0.00 mm

01:55

19.8 C

1009.1 hpa

72 %

8.0 km/h aus 115

17.7 km/h aus WSW

14.6 C

20.1 C

19.8 C

20.1 C

0 W/m

0.00 mm

02:00

19.7 C

1009.5 hpa

73 %

8.0 km/h aus 117

16.1 km/h aus NNW

14.7 C

20.1 C

19.7 C

20.1 C

0 W/m

0.00 mm

02:05

19.7 C

1009.5 hpa

74 %

9.7 km/h aus 114

16.1 km/h aus W

14.9 C

20.1 C

19.7 C

20.1 C

0 W/m

0.00 mm

02:10

19.6 C

1009.5 hpa

75 %

6.4 km/h aus 118

19.3 km/h aus WNW

15.0 C

19.9 C

19.6 C

19.9 C

0 W/m

0.00 mm

02:15

19.4 C

1009.5 hpa

76 %

8.0 km/h aus 117

20.9 km/h aus NW

15.1 C

19.9 C

19.4 C

19.9 C

0 W/m

0.00 mm

02:20

19.4 C

1009.5 hpa

76 %

8.0 km/h aus 117

17.7 km/h aus NW

15.0 C

19.8 C

19.4 C

19.8 C

0 W/m

0.00 mm

02:25

19.3 C

1009.5 hpa

77 %

9.7 km/h aus 117

20.9 km/h aus NW

15.2 C

19.8 C

19.3 C

19.8 C

0 W/m

0.00 mm

02:30

19.2 C

1009.5 hpa

78 %

6.4 km/h aus 117

11.3 km/h aus NW

15.2 C

19.6 C

19.2 C

19.6 C

0 W/m

0.00 mm

02:35

19.1 C

1009.5 hpa

79 %

6.4 km/h aus 116

11.3 km/h aus WNW

15.3 C

19.6 C

19.1 C

19.6 C

0 W/m

0.00 mm

02:40

19.0 C

1009.5 hpa

80 %

8.0 km/h aus 115

14.5 km/h aus WNW

15.5 C

19.5 C

19.0 C

19.5 C

0 W/m

0.00 mm

02:45

18.9 C

1009.9 hpa

80 %

8.0 km/h aus 117

17.7 km/h aus WSW

15.4 C

19.4 C

18.9 C

19.4 C

0 W/m

0.00 mm

02:50

18.9 C

1009.9 hpa

81 %

6.4 km/h aus 117

16.1 km/h aus W

15.6 C

19.4 C

18.9 C

19.4 C

0 W/m

0.00 mm

02:55

18.8 C

1009.9 hpa

81 %

8.0 km/h aus 117

16.1 km/h aus W

15.5 C

19.3 C

18.8 C

19.3 C

0 W/m

0.00 mm

03:00

18.8 C

1010.0 hpa

82 %

11.3 km/h aus 116

22.5 km/h aus NW

15.7 C

19.3 C

18.8 C

19.3 C

0 W/m

0.00 mm

03:05

18.8 C

1010.0 hpa

83 %

8.0 km/h aus 115

17.7 km/h aus W

15.9 C

19.3 C

18.8 C

19.3 C

0 W/m

0.00 mm

03:10

18.8 C

1010.0 hpa

83 %

9.7 km/h aus 117

19.3 km/h aus NW

15.9 C

19.3 C

18.8 C

19.3 C

0 W/m

0.00 mm

03:15

18.8 C

1010.0 hpa

84 %

11.3 km/h aus 118

24.1 km/h aus WNW

16.1 C

19.4 C

18.8 C

19.4 C

0 W/m

0.00 mm

03:20

18.8 C

1010.0 hpa

84 %

8.0 km/h aus 117

16.1 km/h aus NW

16.0 C

19.3 C

18.8 C

19.3 C

0 W/m

0.00 mm

03:25

18.7 C

1010.0 hpa

84 %

9.7 km/h aus 117

22.5 km/h aus NW

16.0 C

19.2 C

18.7 C

19.2 C

0 W/m

0.00 mm

03:30

18.7 C

1010.0 hpa

84 %

8.0 km/h aus 117

16.1 km/h aus NW

16.0 C

19.2 C

18.7 C

19.2 C

0 W/m

0.00 mm

03:35

18.7 C

1010.0 hpa

84 %

9.7 km/h aus 117

19.3 km/h aus NW

15.9 C

19.2 C

18.7 C

19.2 C

0 W/m

0.00 mm

03:40

18.7 C

1010.0 hpa

85 %

11.3 km/h aus 117

19.3 km/h aus WNW

16.1 C

19.2 C

18.7 C

19.2 C

0 W/m

0.00 mm

03:45

18.6 C

1010.0 hpa

85 %

9.7 km/h aus 117

17.7 km/h aus NW

16.0 C

19.1 C

18.6 C

19.1 C

0 W/m

0.00 mm

03:50

18.6 C

1010.0 hpa

85 %

8.0 km/h aus 117

17.7 km/h aus NW

16.0 C

19.1 C

18.6 C

19.1 C

0 W/m

0.00 mm

03:55

18.6 C

1010.0 hpa

85 %

8.0 km/h aus 117

19.3 km/h aus W

16.0 C

19.1 C

18.6 C

19.1 C

0 W/m

0.00 mm

04:00

18.6 C

1010.1 hpa

85 %

8.0 km/h aus 117

17.7 km/h aus NW

16.0 C

19.1 C

18.6 C

19.1 C

0 W/m

0.00 mm

04:05

18.6 C

1010.1 hpa

86 %

6.4 km/h aus 117

14.5 km/h aus WNW

16.2 C

19.1 C

18.6 C

19.1 C

0 W/m

0.00 mm

04:10

18.5 C

1010.1 hpa

86 %

6.4 km/h aus 117

14.5 km/h aus NW

16.1 C

19.0 C

18.5 C

19.0 C

0 W/m

0.00 mm

04:15

18.5 C

1010.1 hpa

86 %

6.4 km/h aus 118

12.9 km/h aus WNW

16.1 C

19.0 C

18.5 C

19.0 C

0 W/m

0.00 mm

04:20

18.5 C

1010.1 hpa

86 %

6.4 km/h aus 117

9.7 km/h aus NW

16.1 C

19.0 C

18.5 C

19.0 C

0 W/m

0.00 mm

04:25

18.5 C

1010.1 hpa

86 %

4.8 km/h aus 115

9.7 km/h aus WNW

16.1 C

19.0 C

18.5 C

19.0 C

0 W/m

0.00 mm

04:30

18.5 C

1010.2 hpa

86 %

8.0 km/h aus 116

16.1 km/h aus NW

16.1 C

19.0 C

18.5 C

19.0 C

0 W/m

0.00 mm

04:35

18.4 C

1010.2 hpa

86 %

4.8 km/h aus 117

9.7 km/h aus NW

16.1 C

18.9 C

18.4 C

18.9 C

0 W/m

0.00 mm

04:40

18.4 C

1010.2 hpa

86 %

6.4 km/h aus 117

11.3 km/h aus WNW

16.0 C

18.9 C

18.4 C

18.9 C

0 W/m

0.00 mm

04:45

18.4 C

1010.1 hpa

86 %

6.4 km/h aus 117

9.7 km/h aus WNW

16.0 C

18.9 C

18.4 C

18.9 C

0 W/m

0.00 mm

04:50

18.3 C

1010.1 hpa

86 %

4.8 km/h aus 117

11.3 km/h aus WNW

15.9 C

18.8 C

18.3 C

18.8 C

0 W/m

0.00 mm

04:55

18.3 C

1010.1 hpa

87 %

4.8 km/h aus 117

11.3 km/h aus NW

16.1 C

18.8 C

18.3 C

18.8 C

0 W/m

0.00 mm

05:00

18.2 C

1010.2 hpa

87 %

4.8 km/h aus 115

8.0 km/h aus NW

16.0 C

18.7 C

18.2 C

18.7 C

0 W/m

0.00 mm

05:05

18.2 C

1010.2 hpa

87 %

8.0 km/h aus 117

12.9 km/h aus WNW

16.0 C

18.7 C

18.2 C

18.7 C

0 W/m

0.00 mm

05:10

18.2 C

1010.2 hpa

86 %

6.4 km/h aus 117

12.9 km/h aus WNW

15.8 C

18.7 C

18.2 C

18.7 C

0 W/m

0.00 mm

05:15

18.2 C

1010.1 hpa

87 %

6.4 km/h aus 117

11.3 km/h aus WNW

16.0 C

18.6 C

18.2 C

18.6 C

0 W/m

0.00 mm

05:20

18.2 C

1010.1 hpa

86 %

8.0 km/h aus 117

16.1 km/h aus WNW

15.8 C

18.6 C

18.2 C

18.6 C

0 W/m

0.00 mm

05:25

18.2 C

1010.1 hpa

86 %

6.4 km/h aus 117

11.3 km/h aus W

15.8 C

18.6 C

18.2 C

18.6 C

0 W/m

0.00 mm

05:30

18.2 C

1010.1 hpa

86 %

6.4 km/h aus 117

14.5 km/h aus W

15.8 C

18.6 C

18.2 C

18.6 C

0 W/m

0.00 mm

05:35

18.2 C

1010.1 hpa

86 %

6.4 km/h aus 117

16.1 km/h aus WNW

15.8 C

18.6 C

18.2 C

18.6 C

0 W/m

0.00 mm

05:40

18.1 C

1010.1 hpa

86 %

6.4 km/h aus 117

11.3 km/h aus W

15.7 C

18.6 C

18.1 C

18.6 C

0 W/m

0.00 mm

05:45

18.1 C

1010.1 hpa

86 %

6.4 km/h aus 116

9.7 km/h aus WNW

15.7 C

18.4 C

18.1 C

18.4 C

0 W/m

0.00 mm

05:50

18.1 C

1010.1 hpa

86 %

4.8 km/h aus 117

16.1 km/h aus WNW

15.7 C

18.4 C

18.1 C

18.4 C

0 W/m

0.00 mm

05:55

18.1 C

1010.1 hpa

86 %

6.4 km/h aus 117

11.3 km/h aus W

15.7 C

18.4 C

18.1 C

18.4 C

0 W/m

0.00 mm

06:00

18.1 C

1010.0 hpa

86 %

8.0 km/h aus 117

14.5 km/h aus WNW

15.7 C

18.4 C

18.1 C

18.4 C

0 W/m

0.00 mm

06:05

18.0 C

1010.0 hpa

86 %

4.8 km/h aus 117

11.3 km/h aus WNW

15.6 C

18.4 C

18.0 C

18.4 C

0 W/m

0.00 mm

06:10

18.0 C

1010.0 hpa

86 %

4.8 km/h aus 117

9.7 km/h aus WNW

15.6 C

18.4 C

18.0 C

18.4 C

0 W/m

0.00 mm

06:15

17.9 C

1010.1 hpa

86 %

6.4 km/h aus 117

11.3 km/h aus WNW

15.6 C

18.3 C

17.9 C

18.3 C

0 W/m

0.00 mm

06:20

17.9 C

1010.1 hpa

86 %

4.8 km/h aus 117

11.3 km/h aus WNW

15.6 C

18.3 C

17.9 C

18.3 C

0 W/m

0.00 mm

06:25

17.9 C

1010.1 hpa

87 %

3.2 km/h aus 117

6.4 km/h aus WNW

15.7 C

18.3 C

17.9 C

18.3 C

0 W/m

0.00 mm

06:30

17.9 C

1010.3 hpa

87 %

6.4 km/h aus 116

12.9 km/h aus NW

15.7 C

18.3 C

17.9 C

18.3 C

0 W/m

0.00 mm

06:35

17.9 C

1010.3 hpa

87 %

6.4 km/h aus 115

14.5 km/h aus NW

15.7 C

18.3 C

17.9 C

18.3 C

0 W/m

0.00 mm

06:40

17.9 C

1010.3 hpa

87 %

6.4 km/h aus 117

11.3 km/h aus NW

15.7 C

18.3 C

17.9 C

18.3 C

0 W/m

0.00 mm

06:45

17.9 C

1010.4 hpa

87 %

4.8 km/h aus 117

9.7 km/h aus NW

15.7 C

18.3 C

17.9 C

18.3 C

0 W/m

0.00 mm

06:50

17.9 C

1010.4 hpa

87 %

6.4 km/h aus 117

11.3 km/h aus WNW

15.7 C

18.3 C

17.9 C

18.3 C

0 W/m

0.00 mm

06:55

17.9 C

1010.4 hpa

87 %

4.8 km/h aus 117

12.9 km/h aus NW

15.7 C

18.3 C

17.9 C

18.3 C

0 W/m

0.00 mm

07:00

17.9 C

1010.5 hpa

87 %

4.8 km/h aus 117

11.3 km/h aus NW

15.7 C

18.3 C

17.9 C

18.3 C

0 W/m

0.00 mm

07:05

17.9 C

1010.5 hpa

87 %

6.4 km/h aus 117

11.3 km/h aus NW

15.7 C

18.3 C

17.9 C

18.3 C

0 W/m

0.00 mm

07:10

17.9 C

1010.5 hpa

86 %

3.2 km/h aus 117

9.7 km/h aus NW

15.6 C

18.3 C

17.9 C

18.3 C

0 W/m

0.00 mm

07:15

18.0 C

1010.5 hpa

86 %

3.2 km/h aus 117

8.0 km/h aus NW

15.6 C

18.4 C

18.0 C

18.4 C

0 W/m

0.00 mm

07:20

18.0 C

1010.5 hpa

86 %

8.0 km/h aus 117

12.9 km/h aus NW

15.6 C

18.4 C

18.0 C

18.4 C

0 W/m

0.00 mm

07:25

18.0 C

1010.5 hpa

87 %

6.4 km/h aus 118

16.1 km/h aus NNW

15.8 C

18.4 C

18.0 C

18.4 C

0 W/m

0.00 mm

07:30

18.1 C

1010.6 hpa

86 %

3.2 km/h aus 117

8.0 km/h aus WNW

15.7 C

18.4 C

18.1 C

18.4 C

0 W/m

0.00 mm

07:35

18.1 C

1010.6 hpa

86 %

3.2 km/h aus 116

6.4 km/h aus WNW

15.7 C

18.4 C

18.1 C

18.4 C

0 W/m

0.00 mm

07:40

18.1 C

1010.6 hpa

86 %

4.8 km/h aus 117

11.3 km/h aus NW

15.7 C

18.4 C

18.1 C

18.4 C

0 W/m

0.00 mm

07:45

18.1 C

1010.8 hpa

86 %

6.4 km/h aus 117

11.3 km/h aus NW

15.7 C

18.4 C

18.1 C

18.4 C

0 W/m

0.00 mm

07:50

18.1 C

1010.8 hpa

86 %

4.8 km/h aus 117

11.3 km/h aus NW

15.7 C

18.6 C

18.1 C

18.6 C

0 W/m

0.00 mm

07:55

18.2 C

1010.8 hpa

85 %

6.4 km/h aus 117

9.7 km/h aus WNW

15.6 C

18.6 C

18.2 C

18.6 C

0 W/m

0.00 mm

08:00

18.2 C

1010.9 hpa

86 %

6.4 km/h aus 117

14.5 km/h aus NW

15.8 C

18.6 C

18.2 C

18.6 C

0 W/m

0.00 mm

08:05

18.2 C

1010.9 hpa

86 %

3.2 km/h aus 117

6.4 km/h aus NW

15.8 C

18.7 C

18.2 C

18.7 C

0 W/m

0.00 mm

08:10

18.2 C

1010.9 hpa

86 %

4.8 km/h aus 117

9.7 km/h aus NW

15.8 C

18.7 C

18.2 C

18.7 C

0 W/m

0.00 mm

08:15

18.2 C

1010.9 hpa

86 %

6.4 km/h aus 117

11.3 km/h aus NW

15.8 C

18.7 C

18.2 C

18.7 C

0 W/m

0.00 mm

08:20

18.3 C

1010.9 hpa

86 %

3.2 km/h aus 117

6.4 km/h aus NW

15.9 C

18.7 C

18.3 C

18.7 C

0 W/m

0.00 mm

08:25

18.3 C

1010.9 hpa

85 %

4.8 km/h aus 117

9.7 km/h aus WNW

15.7 C

18.7 C

18.3 C

18.7 C

0 W/m

0.00 mm

08:30

18.3 C

1011.0 hpa

86 %

4.8 km/h aus 118

6.4 km/h aus WNW

15.9 C

18.7 C

18.3 C

18.7 C

0 W/m

0.00 mm

08:35

18.3 C

1011.0 hpa

85 %

6.4 km/h aus 117

11.3 km/h aus WNW

15.8 C

18.8 C

18.3 C

18.8 C

0 W/m

0.00 mm

08:40

18.3 C

1011.0 hpa

85 %

4.8 km/h aus 117

9.7 km/h aus W

15.8 C

18.8 C

18.3 C

18.8 C

0 W/m

0.00 mm

08:45

18.4 C

1010.9 hpa

85 %

4.8 km/h aus 117

9.7 km/h aus NW

15.9 C

18.9 C

18.4 C

18.9 C

0 W/m

0.00 mm

08:50

18.6 C

1010.9 hpa

85 %

4.8 km/h aus 117

9.7 km/h aus NW

16.0 C

19.1 C

18.6 C

19.1 C

0 W/m

0.00 mm

08:55

18.6 C

1010.9 hpa

84 %

6.4 km/h aus 116

11.3 km/h aus NW

15.9 C

19.1 C

18.6 C

19.1 C

0 W/m

0.00 mm

09:00

18.6 C

1011.0 hpa

84 %

8.0 km/h aus 117

14.5 km/h aus WNW

15.8 C

19.1 C

18.6 C

19.1 C

0 W/m

0.00 mm

09:05

18.6 C

1011.0 hpa

84 %

6.4 km/h aus 117

14.5 km/h aus WNW

15.9 C

19.1 C

18.6 C

19.1 C

0 W/m

0.00 mm

09:10

18.8 C

1011.0 hpa

85 %

8.0 km/h aus 117

14.5 km/h aus NW

16.2 C

19.3 C

18.8 C

19.3 C

0 W/m

0.00 mm

09:15

18.9 C

1011.0 hpa

84 %

6.4 km/h aus 117

12.9 km/h aus NW

16.1 C

19.4 C

18.9 C

19.4 C

0 W/m

0.00 mm

09:20

18.9 C

1011.0 hpa

83 %

6.4 km/h aus 117

12.9 km/h aus WNW

16.0 C

19.5 C

18.9 C

19.5 C

0 W/m

0.00 mm

09:25

19.0 C

1011.0 hpa

83 %

6.4 km/h aus 117

14.5 km/h aus NW

16.0 C

19.6 C

19.0 C

19.6 C

0 W/m

0.00 mm

09:30

18.9 C

1011.0 hpa

83 %

8.0 km/h aus 118

14.5 km/h aus NW

16.0 C

19.5 C

18.9 C

19.5 C

0 W/m

0.00 mm

09:35

18.9 C

1011.0 hpa

83 %

4.8 km/h aus 116

11.3 km/h aus NNW

16.0 C

19.5 C

18.9 C

19.5 C

0 W/m

0.00 mm

09:40

19.1 C

1011.0 hpa

83 %

4.8 km/h aus 117

9.7 km/h aus WNW

16.2 C

19.7 C

19.1 C

19.7 C

0 W/m

0.00 mm

09:45

19.1 C

1011.1 hpa

82 %

6.4 km/h aus 117

14.5 km/h aus WNW

15.9 C

19.6 C

19.1 C

19.6 C

0 W/m

0.00 mm

09:50

18.9 C

1011.1 hpa

82 %

8.0 km/h aus 116

14.5 km/h aus WNW

15.8 C

19.5 C

18.9 C

19.5 C

0 W/m

0.00 mm

09:55

19.0 C

1011.1 hpa

83 %

8.0 km/h aus 116

12.9 km/h aus WNW

16.0 C

19.6 C

19.0 C

19.6 C

0 W/m

0.00 mm

10:00

19.1 C

1011.2 hpa

83 %

6.4 km/h aus 116

11.3 km/h aus NW

16.1 C

19.6 C

19.1 C

19.6 C

0 W/m

0.00 mm

10:05

19.2 C

1011.2 hpa

83 %

6.4 km/h aus 116

11.3 km/h aus NW

16.2 C

19.8 C

19.2 C

19.8 C

0 W/m

0.00 mm

10:10

19.2 C

1011.2 hpa

83 %

4.8 km/h aus 116

9.7 km/h aus NW

16.2 C

19.8 C

19.2 C

19.8 C

0 W/m

0.00 mm

10:15

19.2 C

1011.4 hpa

82 %

6.4 km/h aus 116

17.7 km/h aus NW

16.1 C

19.8 C

19.2 C

19.8 C

0 W/m

0.00 mm

10:20

19.4 C

1011.4 hpa

82 %

6.4 km/h aus 117

14.5 km/h aus NW

16.3 C

20.1 C

19.4 C

20.1 C

0 W/m

0.00 mm

10:25

19.7 C

1011.4 hpa

81 %

6.4 km/h aus 117

11.3 km/h aus NW

16.4 C

20.4 C

19.7 C

20.4 C

0 W/m

0.00 mm

10:30

19.8 C

1011.4 hpa

80 %

8.0 km/h aus 117

14.5 km/h aus NW

16.3 C

20.5 C

19.8 C

20.5 C

0 W/m

0.00 mm

10:35

19.8 C

1011.4 hpa

80 %

8.0 km/h aus 117

14.5 km/h aus NW

16.3 C

20.5 C

19.8 C

20.5 C

0 W/m

0.00 mm

10:40

20.0 C

1011.4 hpa

80 %

6.4 km/h aus 117

14.5 km/h aus NW

16.4 C

20.7 C

20.0 C

20.7 C

0 W/m

0.00 mm

10:45

20.0 C

1011.3 hpa

81 %

4.8 km/h aus 117

8.0 km/h aus WNW

16.6 C

20.7 C

20.0 C

20.7 C

0 W/m

0.00 mm

10:50

20.1 C

1011.3 hpa

79 %

8.0 km/h aus 117

17.7 km/h aus WNW

16.3 C

20.7 C

20.1 C

20.7 C

0 W/m

0.00 mm

10:55

20.0 C

1011.3 hpa

80 %

6.4 km/h aus 116

11.3 km/h aus WNW

16.4 C

20.7 C

20.0 C

20.7 C

0 W/m

0.00 mm

11:00

19.9 C

1011.2 hpa

80 %

6.4 km/h aus 117

11.3 km/h aus WNW

16.3 C

20.6 C

19.9 C

20.6 C

0 W/m

0.00 mm

11:05

19.9 C

1011.2 hpa

80 %

6.4 km/h aus 116

11.3 km/h aus WNW

16.4 C

20.7 C

19.9 C

20.7 C

0 W/m

0.00 mm

11:10

19.8 C

1011.2 hpa

79 %

4.8 km/h aus 116

8.0 km/h aus WNW

16.1 C

20.5 C

19.8 C

20.5 C

0 W/m

0.00 mm

11:15

20.0 C

1011.1 hpa

80 %

4.8 km/h aus 117

8.0 km/h aus NW

16.4 C

20.7 C

20.0 C

20.7 C

0 W/m

0.00 mm

11:20

20.1 C

1011.1 hpa

79 %

6.4 km/h aus 117

11.3 km/h aus NW

16.3 C

20.7 C

20.1 C

20.7 C

0 W/m

0.00 mm

11:25

20.1 C

1011.1 hpa

79 %

6.4 km/h aus 117

11.3 km/h aus NW

16.3 C

20.7 C

20.1 C

20.7 C

0 W/m

0.00 mm

11:30

19.9 C

1011.1 hpa

79 %

6.4 km/h aus 117

12.9 km/h aus WNW

16.2 C

20.6 C

19.9 C

20.6 C

0 W/m

0.00 mm

11:35

20.0 C

1011.1 hpa

80 %

6.4 km/h aus 117

11.3 km/h aus NW

16.4 C

20.7 C

20.0 C

20.7 C

0 W/m

0.00 mm

11:40

19.9 C

1011.1 hpa

80 %

6.4 km/h aus 117

14.5 km/h aus WNW

16.4 C

20.7 C

19.9 C

20.7 C

0 W/m

0.00 mm

11:45

19.9 C

1011.1 hpa

80 %

8.0 km/h aus 117

16.1 km/h aus WNW

16.4 C

20.7 C

19.9 C

20.7 C

0 W/m

0.00 mm

11:50

20.0 C

1011.1 hpa

80 %

6.4 km/h aus 116

12.9 km/h aus NW

16.4 C

20.7 C

20.0 C

20.7 C

0 W/m

0.00 mm

11:55

20.0 C

1011.1 hpa

79 %

8.0 km/h aus 117

16.1 km/h aus NW

16.2 C

20.7 C

20.0 C

20.7 C

0 W/m

0.00 mm

12:00

20.1 C

1011.5 hpa

79 %

8.0 km/h aus 117

16.1 km/h aus W

16.4 C

20.8 C

20.1 C

20.8 C

0 W/m

0.00 mm

12:05

20.1 C

1011.5 hpa

78 %

9.7 km/h aus 116

20.9 km/h aus NW

16.2 C

20.8 C

20.1 C

20.8 C

0 W/m

0.00 mm

12:10

20.0 C

1011.5 hpa

79 %

8.0 km/h aus 117

16.1 km/h aus NW

16.2 C

20.7 C

20.0 C

20.7 C

0 W/m

0.00 mm

12:15

20.1 C

1011.6 hpa

80 %

6.4 km/h aus 117

16.1 km/h aus W

16.5 C

20.8 C

20.1 C

20.8 C

0 W/m

0.00 mm

12:20

20.0 C

1011.6 hpa

80 %

8.0 km/h aus 116

16.1 km/h aus NW

16.4 C

20.7 C

20.0 C

20.7 C

0 W/m

0.00 mm

12:25

19.9 C

1011.6 hpa

79 %

8.0 km/h aus 117

16.1 km/h aus WNW

16.2 C

20.6 C

19.9 C

20.6 C

0 W/m

0.00 mm

12:30

20.1 C

1011.6 hpa

80 %

8.0 km/h aus 117

16.1 km/h aus NW

16.5 C

20.8 C

20.1 C

20.8 C

0 W/m

0.00 mm

12:35

20.2 C

1011.6 hpa

79 %

8.0 km/h aus 117

16.1 km/h aus W

16.4 C

20.9 C

20.2 C

20.9 C

0 W/m

0.00 mm

12:40

20.2 C

1011.6 hpa

79 %

8.0 km/h aus 118

16.1 km/h aus NW

16.4 C

20.9 C

20.2 C

20.9 C

0 W/m

0.00 mm

12:45

20.1 C

1011.6 hpa

78 %

8.0 km/h aus 117

17.7 km/h aus NW

16.2 C

20.8 C

20.1 C

20.8 C

0 W/m

0.00 mm

12:50

20.2 C

1011.6 hpa

79 %

6.4 km/h aus 117

11.3 km/h aus NW

16.4 C

20.9 C

20.2 C

20.9 C

0 W/m

0.00 mm

12:55

20.1 C

1011.6 hpa

80 %

8.0 km/h aus 117

17.7 km/h aus NW

16.6 C

20.8 C

20.1 C

20.8 C

0 W/m

0.00 mm

13:00

20.0 C

1011.6 hpa

80 %

11.3 km/h aus 117

17.7 km/h aus W

16.4 C

20.7 C

20.0 C

20.7 C

0 W/m

0.00 mm

13:05

20.0 C

1011.6 hpa

81 %

9.7 km/h aus 117

14.5 km/h aus WNW

16.6 C

20.7 C

20.0 C

20.7 C

0 W/m

0.00 mm

13:10

19.9 C

1011.6 hpa

81 %

9.7 km/h aus 117

17.7 km/h aus WNW

16.6 C

20.7 C

19.9 C

20.7 C

0 W/m

0.00 mm

13:15

19.9 C

1011.6 hpa

80 %

9.7 km/h aus 116

19.3 km/h aus NW

16.4 C

20.7 C

19.9 C

20.7 C

0 W/m

0.00 mm

13:20

20.0 C

1011.6 hpa

81 %

9.7 km/h aus 117

17.7 km/h aus WNW

16.6 C

20.7 C

20.0 C

20.7 C

0 W/m

0.00 mm

13:25

20.1 C

1011.6 hpa

80 %

9.7 km/h aus 117

17.7 km/h aus W

16.6 C

20.8 C

20.1 C

20.8 C

0 W/m

0.00 mm

13:30

20.2 C

1011.4 hpa

80 %

11.3 km/h aus 117

17.7 km/h aus NW

16.7 C

21.0 C

20.2 C

21.0 C

0 W/m

0.00 mm

13:35

20.4 C

1011.4 hpa

80 %

8.0 km/h aus 117

17.7 km/h aus NW

16.9 C

21.3 C

20.4 C

21.3 C

0 W/m

0.00 mm

13:40

20.5 C

1011.4 hpa

79 %

9.7 km/h aus 118

17.7 km/h aus NW

16.7 C

21.3 C

20.5 C

21.3 C

0 W/m

0.00 mm

13:45

20.6 C

1011.6 hpa

78 %

8.0 km/h aus 117

16.1 km/h aus NW

16.6 C

21.3 C

20.6 C

21.3 C

0 W/m

0.00 mm

13:50

20.7 C

1011.6 hpa

78 %

9.7 km/h aus 117

16.1 km/h aus WNW

16.7 C

21.4 C

20.7 C

21.4 C

0 W/m

0.00 mm

13:55

20.8 C

1011.6 hpa

78 %

11.3 km/h aus 117

20.9 km/h aus NNW

16.8 C

21.4 C

20.8 C

21.4 C

0 W/m

0.00 mm

14:00

20.8 C

1011.6 hpa

78 %

8.0 km/h aus 117

16.1 km/h aus WNW

16.9 C

21.4 C

20.8 C

21.4 C

0 W/m

0.00 mm

14:05

20.9 C

1011.6 hpa

77 %

6.4 km/h aus 117

14.5 km/h aus NNW

16.7 C

21.4 C

20.9 C

21.4 C

0 W/m

0.00 mm

14:10

20.9 C

1011.6 hpa

77 %

8.0 km/h aus 117

14.5 km/h aus NW

16.8 C

21.4 C

20.9 C

21.4 C

0 W/m

0.00 mm

14:15

21.0 C

1011.6 hpa

77 %

6.4 km/h aus 117

16.1 km/h aus NW

16.8 C

21.5 C

21.0 C

21.5 C

0 W/m

0.00 mm

14:20

20.9 C

1011.6 hpa

78 %

8.0 km/h aus 117

16.1 km/h aus NW

16.9 C

21.5 C

20.9 C

21.5 C

0 W/m

0.00 mm

14:25

20.9 C

1011.6 hpa

77 %

9.7 km/h aus 117

17.7 km/h aus NW

16.7 C

21.4 C

20.9 C

21.4 C

0 W/m

0.00 mm

14:30

20.9 C

1011.6 hpa

77 %

8.0 km/h aus 117

19.3 km/h aus NW

16.8 C

21.4 C

20.9 C

21.4 C

0 W/m

0.00 mm

14:35

20.9 C

1011.6 hpa

77 %

9.7 km/h aus 117

19.3 km/h aus NW

16.7 C

21.4 C

20.9 C

21.4 C

0 W/m

0.00 mm

14:40

20.9 C

1011.6 hpa

76 %

6.4 km/h aus 116

14.5 km/h aus NW

16.6 C

21.4 C

20.9 C

21.4 C

0 W/m

0.00 mm

14:45

21.2 C

1011.6 hpa

77 %

8.0 km/h aus 118

17.7 km/h aus NNW

17.0 C

21.6 C

21.2 C

21.6 C

0 W/m

0.00 mm

14:50

21.2 C

1011.6 hpa

76 %

8.0 km/h aus 116

14.5 km/h aus NW

16.8 C

21.6 C

21.2 C

21.6 C

0 W/m

0.00 mm

14:55

21.2 C

1011.6 hpa

76 %

8.0 km/h aus 116

17.7 km/h aus W

16.8 C

21.6 C

21.2 C

21.6 C

0 W/m

0.00 mm

15:00

21.3 C

1011.6 hpa

76 %

8.0 km/h aus 116

14.5 km/h aus N

16.9 C

21.8 C

21.3 C

21.8 C

0 W/m

0.00 mm

15:05

21.3 C

1011.6 hpa

75 %

8.0 km/h aus 117

16.1 km/h aus WNW

16.7 C

21.7 C

21.3 C

21.7 C

0 W/m

0.00 mm

15:10

21.2 C

1011.6 hpa

75 %

9.7 km/h aus 116

19.3 km/h aus NW

16.6 C

21.6 C

21.2 C

21.6 C

0 W/m

0.00 mm

15:15

21.2 C

1011.7 hpa

75 %

9.7 km/h aus 117

17.7 km/h aus NW

16.6 C

21.5 C

21.2 C

21.5 C

0 W/m

0.00 mm

15:20

21.1 C

1011.7 hpa

76 %

8.0 km/h aus 116

16.1 km/h aus NW

16.7 C

21.5 C

21.1 C

21.5 C

0 W/m

0.00 mm

15:25

21.2 C

1011.7 hpa

75 %

8.0 km/h aus 117

16.1 km/h aus NNW

16.6 C

21.5 C

21.2 C

21.5 C

0 W/m

0.00 mm

15:30

21.1 C

1011.7 hpa

76 %

8.0 km/h aus 117

17.7 km/h aus NNW

16.7 C

21.4 C

21.1 C

21.4 C

0 W/m

0.00 mm

15:35

20.9 C

1011.7 hpa

75 %

8.0 km/h aus 117

19.3 km/h aus NW

16.3 C

21.3 C

20.9 C

21.3 C

0 W/m

0.00 mm

15:40

20.9 C

1011.7 hpa

76 %

8.0 km/h aus 115

19.3 km/h aus NW

16.5 C

21.4 C

20.9 C

21.4 C

0 W/m

0.00 mm

15:45

20.8 C

1011.6 hpa

76 %

6.4 km/h aus 118

16.1 km/h aus NW

16.4 C

21.3 C

20.8 C

21.3 C

0 W/m

0.00 mm

15:50

20.8 C

1011.6 hpa

76 %

9.7 km/h aus 117

19.3 km/h aus NW

16.4 C

21.3 C

20.8 C

21.3 C

0 W/m

0.00 mm

15:55

20.7 C

1011.6 hpa

76 %

8.0 km/h aus 117

16.1 km/h aus NW

16.3 C

21.3 C

20.7 C

21.3 C

0 W/m

0.00 mm

16:00

20.7 C

1011.7 hpa

77 %

11.3 km/h aus 117

20.9 km/h aus NNW

16.5 C

21.3 C

20.7 C

21.3 C

0 W/m

0.00 mm

16:05

20.6 C

1011.7 hpa

77 %

8.0 km/h aus 117

16.1 km/h aus NW

16.4 C

21.2 C

20.6 C

21.2 C

0 W/m

0.00 mm

16:10

20.4 C

1011.7 hpa

78 %

9.7 km/h aus 117

16.1 km/h aus WNW

16.5 C

21.2 C

20.4 C

21.2 C

0 W/m

0.00 mm

16:15

20.2 C

1011.7 hpa

79 %

9.7 km/h aus 117

19.3 km/h aus NW

16.5 C

20.9 C

20.2 C

20.9 C

0 W/m

0.00 mm

16:20

20.1 C

1011.7 hpa

80 %

8.0 km/h aus 117

19.3 km/h aus WNW

16.5 C

20.8 C

20.1 C

20.8 C

0 W/m

0.00 mm

16:25

20.0 C

1011.7 hpa

80 %

8.0 km/h aus 117

16.1 km/h aus NW

16.4 C

20.7 C

20.0 C

20.7 C

0 W/m

0.00 mm

16:30

19.9 C

1011.8 hpa

80 %

9.7 km/h aus 117

17.7 km/h aus WNW

16.4 C

20.7 C

19.9 C

20.7 C

0 W/m

0.00 mm

16:35

19.9 C

1011.8 hpa

80 %

11.3 km/h aus 117

20.9 km/h aus NW

16.4 C

20.7 C

19.9 C

20.7 C

0 W/m

0.00 mm

16:40

19.9 C

1011.8 hpa

81 %

6.4 km/h aus 117

14.5 km/h aus NW

16.5 C

20.6 C

19.9 C

20.6 C

0 W/m

0.00 mm

16:45

19.9 C

1011.9 hpa

81 %

8.0 km/h aus 117

14.5 km/h aus WNW

16.5 C

20.6 C

19.9 C

20.6 C

0 W/m

0.00 mm

16:50

19.8 C

1011.9 hpa

81 %

8.0 km/h aus 118

19.3 km/h aus WNW

16.5 C

20.6 C

19.8 C

20.6 C

0 W/m

0.00 mm

16:55

19.8 C

1011.9 hpa

81 %

8.0 km/h aus 117

20.9 km/h aus NW

16.5 C

20.6 C

19.8 C

20.6 C

0 W/m

0.00 mm

17:00

19.7 C

1012.0 hpa

81 %

9.7 km/h aus 117

19.3 km/h aus WNW

16.4 C

20.4 C

19.7 C

20.4 C

0 W/m

0.00 mm

17:05

19.7 C

1012.0 hpa

81 %

11.3 km/h aus 116

19.3 km/h aus NW

16.3 C

20.3 C

19.7 C

20.3 C

0 W/m

0.00 mm

17:10

19.7 C

1012.0 hpa

82 %

9.7 km/h aus 117

19.3 km/h aus WNW

16.5 C

20.4 C

19.7 C

20.4 C

0 W/m

0.00 mm

17:15

19.5 C

1012.1 hpa

83 %

9.7 km/h aus 117

19.3 km/h aus NW

16.5 C

20.2 C

19.5 C

20.2 C

0 W/m

0.00 mm

17:20

19.3 C

1012.1 hpa

84 %

6.4 km/h aus 116

16.1 km/h aus WNW

16.6 C

20.0 C

19.3 C

20.0 C

0 W/m

0.00 mm

17:25

19.1 C

1012.1 hpa

86 %

8.0 km/h aus 117

17.7 km/h aus WNW

16.7 C

19.8 C

19.1 C

19.8 C

0 W/m

0.00 mm

17:30

18.9 C

1012.0 hpa

87 %

4.8 km/h aus 117

11.3 km/h aus NW

16.7 C

19.6 C

18.9 C

19.6 C

0 W/m

0.00 mm

17:35

18.9 C

1012.0 hpa

87 %

6.4 km/h aus 117

14.5 km/h aus NW

16.7 C

19.6 C

18.9 C

19.6 C

0 W/m

0.00 mm

17:40

18.9 C

1012.0 hpa

87 %

9.7 km/h aus 117

19.3 km/h aus N

16.7 C

19.6 C

18.9 C

19.6 C

0 W/m

0.00 mm

17:45

18.8 C

1012.1 hpa

87 %

9.7 km/h aus 117

19.3 km/h aus NW

16.6 C

19.4 C

18.8 C

19.4 C

0 W/m

0.00 mm

17:50

18.7 C

1012.1 hpa

87 %

9.7 km/h aus 117

16.1 km/h aus NW

16.5 C

19.3 C

18.7 C

19.3 C

0 W/m

0.00 mm

17:55

18.6 C

1012.1 hpa

88 %

8.0 km/h aus 118

20.9 km/h aus NW

16.6 C

19.2 C

18.6 C

19.2 C

0 W/m

0.00 mm

18:00

18.5 C

1012.1 hpa

89 %

11.3 km/h aus 117

19.3 km/h aus WNW

16.7 C

19.1 C

18.5 C

19.1 C

0 W/m

0.00 mm

18:05

18.3 C

1012.1 hpa

89 %

12.9 km/h aus 117

20.9 km/h aus NW

16.5 C

18.6 C

18.0 C

18.9 C

0 W/m

0.00 mm

18:10

18.3 C

1012.1 hpa

90 %

9.7 km/h aus 117

17.7 km/h aus NW

16.6 C

18.8 C

18.3 C

18.8 C

0 W/m

0.00 mm

18:15

18.2 C

1012.1 hpa

90 %

6.4 km/h aus 117

16.1 km/h aus NW

16.6 C

18.8 C

18.2 C

18.8 C

0 W/m

0.20 mm

18:20

18.1 C

1012.1 hpa

90 %

9.7 km/h aus 117

20.9 km/h aus NNW

16.4 C

18.6 C

18.1 C

18.6 C

0 W/m

0.00 mm

18:25

18.1 C

1012.1 hpa

90 %

9.7 km/h aus 113

19.3 km/h aus NNW

16.4 C

18.6 C

18.1 C

18.6 C

0 W/m

0.20 mm

18:30

18.0 C

1012.1 hpa

91 %

9.7 km/h aus 117

22.5 km/h aus NW

16.5 C

18.5 C

18.0 C

18.5 C

0 W/m

0.00 mm

18:35

17.9 C

1012.1 hpa

91 %

4.8 km/h aus 117

9.7 km/h aus WNW

16.5 C

18.4 C

17.9 C

18.4 C

0 W/m

0.00 mm

18:40

17.9 C

1012.1 hpa

92 %

9.7 km/h aus 117

19.3 km/h aus NW

16.6 C

18.4 C

17.9 C

18.4 C

0 W/m

0.00 mm

18:45

17.8 C

1012.1 hpa

91 %

6.4 km/h aus 116

17.7 km/h aus NW

16.3 C

18.3 C

17.8 C

18.3 C

0 W/m

0.00 mm

18:50

17.8 C

1012.1 hpa

92 %

6.4 km/h aus 117

11.3 km/h aus WNW

16.5 C

18.3 C

17.8 C

18.3 C

0 W/m

0.40 mm

18:55

17.7 C

1012.1 hpa

92 %

11.3 km/h aus 118

17.7 km/h aus NW

16.4 C

18.2 C

17.7 C

18.2 C

0 W/m

0.00 mm

19:00

17.7 C

1012.1 hpa

91 %

9.7 km/h aus 117

17.7 km/h aus NW

16.2 C

18.2 C

17.7 C

18.2 C

0 W/m

0.00 mm

19:05

17.7 C

1012.1 hpa

92 %

9.7 km/h aus 117

20.9 km/h aus NW

16.4 C

18.2 C

17.7 C

18.2 C

0 W/m

0.00 mm

19:10

17.7 C

1012.1 hpa

92 %

8.0 km/h aus 117

17.7 km/h aus NNW

16.4 C

18.2 C

17.7 C

18.2 C

0 W/m

0.00 mm

19:15

17.6 C

1012.1 hpa

92 %

8.0 km/h aus 116

17.7 km/h aus NW

16.3 C

18.1 C

17.6 C

18.1 C

0 W/m

0.00 mm

19:20

17.6 C

1012.1 hpa

92 %

9.7 km/h aus 117

19.3 km/h aus NW

16.3 C

18.1 C

17.6 C

18.1 C

0 W/m

0.20 mm

19:25

17.6 C

1012.1 hpa

92 %

6.4 km/h aus 116

16.1 km/h aus NNW

16.2 C

18.0 C

17.6 C

18.0 C

0 W/m

0.00 mm

19:30

17.5 C

1012.1 hpa

92 %

8.0 km/h aus 117

14.5 km/h aus NW

16.2 C

17.9 C

17.5 C

17.9 C

0 W/m

0.00 mm

19:35

17.5 C

1012.1 hpa

92 %

8.0 km/h aus 117

17.7 km/h aus NW

16.2 C

17.9 C

17.5 C

17.9 C

0 W/m

0.00 mm

19:40

17.4 C

1012.1 hpa

92 %

8.0 km/h aus 117

14.5 km/h aus NW

16.1 C

17.9 C

17.4 C

17.9 C

0 W/m

0.00 mm

19:45

17.4 C

1012.2 hpa

92 %

6.4 km/h aus 117

14.5 km/h aus NW

16.1 C

17.9 C

17.4 C

17.9 C

0 W/m

0.00 mm

19:50

17.4 C

1012.2 hpa

92 %

8.0 km/h aus 117

19.3 km/h aus NW

16.1 C

17.9 C

17.4 C

17.9 C

0 W/m

0.00 mm

19:55

17.4 C

1012.2 hpa

92 %

8.0 km/h aus 117

16.1 km/h aus W

16.1 C

17.8 C

17.4 C

17.8 C

0 W/m

0.00 mm

20:00

17.3 C

1012.4 hpa

92 %

8.0 km/h aus 118

16.1 km/h aus NW

16.0 C

17.8 C

17.3 C

17.8 C

0 W/m

0.00 mm

20:05

17.2 C

1012.4 hpa

91 %

9.7 km/h aus 117

22.5 km/h aus WNW

15.7 C

17.6 C

17.2 C

17.6 C

0 W/m

0.00 mm

20:10

17.0 C

1012.4 hpa

90 %

11.3 km/h aus 117

20.9 km/h aus NW

15.3 C

17.2 C

16.9 C

17.3 C

0 W/m

0.00 mm

20:15

16.9 C

1012.5 hpa

91 %

8.0 km/h aus 117

14.5 km/h aus NW

15.5 C

17.3 C

16.9 C

17.3 C

0 W/m

0.00 mm

20:20

16.8 C

1012.5 hpa

91 %

9.7 km/h aus 116

20.9 km/h aus NW

15.4 C

17.2 C

16.8 C

17.2 C

0 W/m

0.00 mm

20:25

16.8 C

1012.5 hpa

91 %

6.4 km/h aus 117

16.1 km/h aus WNW

15.3 C

17.1 C

16.8 C

17.1 C

0 W/m

0.00 mm

20:30

16.8 C

1012.5 hpa

92 %

6.4 km/h aus 116

11.3 km/h aus NW

15.5 C

17.1 C

16.8 C

17.1 C

0 W/m

0.00 mm

20:35

16.8 C

1012.5 hpa

92 %

4.8 km/h aus 117

9.7 km/h aus NW

15.5 C

17.1 C

16.8 C

17.1 C

0 W/m

0.00 mm

20:40

16.7 C

1012.5 hpa

92 %

6.4 km/h aus 116

12.9 km/h aus NW

15.4 C

17.1 C

16.7 C

17.1 C

0 W/m

0.00 mm

20:45

16.7 C

1012.6 hpa

92 %

6.4 km/h aus 117

12.9 km/h aus NW

15.4 C

17.1 C

16.7 C

17.1 C

0 W/m

0.00 mm

20:50

16.7 C

1012.6 hpa

92 %

6.4 km/h aus 117

12.9 km/h aus NW

15.4 C

17.0 C

16.7 C

17.0 C

0 W/m

0.00 mm

20:55

16.7 C

1012.6 hpa

92 %

6.4 km/h aus 117

14.5 km/h aus NNW

15.4 C

17.0 C

16.7 C

17.0 C

0 W/m

0.00 mm

21:00

16.7 C

1012.6 hpa

92 %

6.4 km/h aus 118

14.5 km/h aus NW

15.4 C

17.0 C

16.7 C

17.0 C

0 W/m

0.00 mm

21:05

16.7 C

1012.6 hpa

92 %

4.8 km/h aus 117

11.3 km/h aus WNW

15.4 C

17.0 C

16.7 C

17.0 C

0 W/m

0.00 mm

21:10

16.7 C

1012.6 hpa

92 %

4.8 km/h aus 117

9.7 km/h aus WNW

15.4 C

17.0 C

16.7 C

17.0 C

0 W/m

0.00 mm

21:15

16.7 C

1012.7 hpa

92 %

4.8 km/h aus 116

11.3 km/h aus NW

15.4 C

17.0 C

16.7 C

17.0 C

0 W/m

0.00 mm

21:20

16.7 C

1012.7 hpa

92 %

6.4 km/h aus 117

11.3 km/h aus WNW

15.4 C

17.0 C

16.7 C

17.0 C

0 W/m

0.00 mm

21:25

16.7 C

1012.7 hpa

92 %

6.4 km/h aus 117

11.3 km/h aus WNW

15.4 C

17.0 C

16.7 C

17.0 C

0 W/m

0.00 mm

21:30

16.7 C

1012.7 hpa

92 %

4.8 km/h aus 117

9.7 km/h aus WNW

15.4 C

17.0 C

16.7 C

17.0 C

0 W/m

0.00 mm

21:35

16.7 C

1012.7 hpa

92 %

6.4 km/h aus 117

11.3 km/h aus WNW

15.4 C

17.0 C

16.7 C

17.0 C

0 W/m

0.00 mm

21:40

16.7 C

1012.7 hpa

92 %

4.8 km/h aus 117

9.7 km/h aus WNW

15.4 C

17.1 C

16.7 C

17.1 C

0 W/m

0.00 mm

21:45

16.7 C

1012.7 hpa

92 %

6.4 km/h aus 117

9.7 km/h aus W

15.4 C

17.1 C

16.7 C

17.1 C

0 W/m

0.00 mm

21:50

16.7 C

1012.7 hpa

92 %

4.8 km/h aus 117

9.7 km/h aus NW

15.4 C

17.1 C

16.7 C

17.1 C

0 W/m

0.00 mm

21:55

16.7 C

1012.7 hpa

92 %

4.8 km/h aus 117

9.7 km/h aus WNW

15.4 C

17.1 C

16.7 C

17.1 C

0 W/m

0.00 mm

22:00

16.7 C

1012.7 hpa

92 %

6.4 km/h aus 115

11.3 km/h aus NW

15.4 C

17.1 C

16.7 C

17.1 C

0 W/m

0.00 mm

22:05

16.7 C

1012.7 hpa

92 %

6.4 km/h aus 104

11.3 km/h aus NW

15.4 C

17.1 C

16.7 C

17.1 C

0 W/m

0.00 mm

22:10

16.7 C

1012.7 hpa

92 %

4.8 km/h aus 117

11.3 km/h aus NW

15.4 C

17.1 C

16.7 C

17.1 C

0 W/m

0.00 mm

22:15

16.7 C

1012.7 hpa

92 %

6.4 km/h aus 117

11.3 km/h aus NW

15.4 C

17.1 C

16.7 C

17.1 C

0 W/m

0.00 mm

22:20

16.8 C

1012.7 hpa

91 %

8.0 km/h aus 117

16.1 km/h aus NNW

15.3 C

17.1 C

16.8 C

17.1 C

0 W/m

0.00 mm

22:25

16.8 C

1012.7 hpa

91 %

6.4 km/h aus 117

17.7 km/h aus NW

15.3 C

17.1 C

16.8 C

17.1 C

0 W/m

0.00 mm

22:30

16.8 C

1012.6 hpa

91 %

8.0 km/h aus 117

12.9 km/h aus WNW

15.3 C

17.1 C

16.8 C

17.1 C

0 W/m

0.00 mm

22:35

16.8 C

1012.6 hpa

91 %

8.0 km/h aus 117

16.1 km/h aus WNW

15.3 C

17.1 C

16.8 C

17.1 C

0 W/m

0.00 mm

22:40

16.8 C

1012.6 hpa

91 %

8.0 km/h aus 117

16.1 km/h aus NW

15.3 C

17.1 C

16.8 C

17.1 C

0 W/m

0.00 mm

22:45

16.7 C

1012.6 hpa

91 %

8.0 km/h aus 117

16.1 km/h aus NW

15.2 C

17.1 C

16.7 C

17.1 C

0 W/m

0.00 mm

22:50

16.7 C

1012.6 hpa

91 %

8.0 km/h aus 117

11.3 km/h aus NW

15.2 C

17.1 C

16.7 C

17.1 C

0 W/m

0.00 mm

22:55

16.7 C

1012.6 hpa

91 %

6.4 km/h aus 117

12.9 km/h aus NNW

15.2 C

17.1 C

16.7 C

17.1 C

0 W/m

0.00 mm

23:00

16.7 C

1012.6 hpa

91 %

8.0 km/h aus 117

16.1 km/h aus NW

15.2 C

17.1 C

16.7 C

17.1 C

0 W/m

0.00 mm

23:05

16.7 C

1012.6 hpa

91 %

8.0 km/h aus 116

16.1 km/h aus NW

15.2 C

17.1 C

16.7 C

17.1 C

0 W/m

0.00 mm

23:10

16.7 C

1012.6 hpa

90 %

8.0 km/h aus 118

16.1 km/h aus NW

15.0 C

16.9 C

16.7 C

16.9 C

0 W/m

0.00 mm

23:15

16.7 C

1012.5 hpa

90 %

11.3 km/h aus 117

17.7 km/h aus NW

15.0 C

16.8 C

16.5 C

16.9 C

0 W/m

0.00 mm

23:20

16.6 C

1012.5 hpa

89 %

8.0 km/h aus 117

16.1 km/h aus NW

14.8 C

16.9 C

16.6 C

16.9 C

0 W/m

0.00 mm

23:25

16.6 C

1012.5 hpa

89 %

6.4 km/h aus 117

11.3 km/h aus NW

14.7 C

16.8 C

16.6 C

16.8 C

0 W/m

0.00 mm

23:30

16.6 C

1012.6 hpa

90 %

8.0 km/h aus 117

14.5 km/h aus NW

15.0 C

16.9 C

16.6 C

16.9 C

0 W/m

0.00 mm

23:35

16.6 C

1012.6 hpa

90 %

9.7 km/h aus 117

16.1 km/h aus NW

15.0 C

16.9 C

16.6 C

16.9 C

0 W/m

0.00 mm

23:40

16.6 C

1012.6 hpa

90 %

6.4 km/h aus 117

14.5 km/h aus NW

14.9 C

16.8 C

16.6 C

16.8 C

0 W/m

0.00 mm

23:45

16.6 C

1012.6 hpa

90 %

8.0 km/h aus 117

17.7 km/h aus WNW

14.9 C

16.8 C

16.6 C

16.8 C

0 W/m

0.00 mm

23:50

16.6 C

1012.6 hpa

90 %

8.0 km/h aus 117

17.7 km/h aus NW

14.9 C

16.8 C

16.6 C

16.8 C

0 W/m

0.00 mm

23:55

16.5 C

1012.6 hpa

89 %

6.4 km/h aus 117

16.1 km/h aus NNW

14.7 C

16.7 C

16.5 C

16.7 C

0 W/m

0.00 mm